This is the latest recevied weather packets stored in our database for station/object LZ3DJ-10. If no packets are shown the sender has not sent any weather packets the latest 10 day(s).
| Time | Temp. | Humidity | Pressure | Rain* | Wind** | Luminosity | Snow |
|---|---|---|---|---|---|---|---|
| 1787718605 | 20° C | 70% | 1011.9 hPa | 0 mm | 0 m/s | - | - |
| 1787717705 | 20° C | 68% | 1011.9 hPa | 0 mm | 0 m/s | - | - |
| 1787716806 | 19.44° C | 68% | 1011.8 hPa | 0 mm | 0 m/s | - | - |
| 1787715905 | 20° C | 66% | 1011.5 hPa | 0 mm | 0 m/s | - | - |
| 1787715005 | 20.56° C | 65% | 1011.5 hPa | 0 mm | 0 m/s | - | - |
| 1787714105 | 20.56° C | 65% | 1011.2 hPa | 0 mm | 0 m/s | - | - |
| 1787713206 | 20.56° C | 64% | 1011.2 hPa | 0 mm | 0 m/s | - | - |
| 1787712305 | 21.11° C | 63% | 1011.2 hPa | 0 mm | 0.45 m/s, 132° | - | - |
| 1787711406 | 21.11° C | 62% | 1011.1 hPa | 0 mm | 0.45 m/s, 136° | - | - |
| 1787710505 | 21.67° C | 62% | 1011.2 hPa | 0 mm | 0 m/s | - | - |
| 1787709606 | 21.67° C | 60% | 1011 hPa | 0 mm | 0.45 m/s, 139° | - | - |
| 1787708705 | 22.22° C | 60% | 1010.9 hPa | 0 mm | 0.89 m/s, 154° | - | - |
| 1787707805 | 21.67° C | 61% | 1011 hPa | 0 mm | 0 m/s | - | - |
| 1787706906 | 21.67° C | 61% | 1011.1 hPa | 0 mm | 0.89 m/s, 141° | - | - |
| 1787706006 | 21.67° C | 63% | 1011.3 hPa | 0 mm | 0.45 m/s, 131° | - | - |
| 1787705106 | 22.22° C | 63% | 1011.4 hPa | 0 mm | 0.45 m/s, 146° | - | - |
| 1787704205 | 22.22° C | 61% | 1011.4 hPa | 0 mm | 0.45 m/s, 138° | - | - |
| 1787703306 | 22.22° C | 65% | 1011.5 hPa | 0 mm | 0 m/s | - | - |
| 1787702406 | 21.67° C | 66% | 1011.5 hPa | 0 mm | 0 m/s | - | - |
| 1787701506 | 22.22° C | 64% | 1011.3 hPa | 0 mm | 0 m/s | - | - |
| 1787700605 | 22.78° C | 61% | 1011 hPa | 0 mm | 0.45 m/s, 149° | - | - |
| 1787699706 | 22.78° C | 60% | 1011 hPa | 0 mm | 0 m/s | - | - |
| 1787698805 | 23.33° C | 58% | 1010.9 hPa | 0 mm | 0 m/s | - | - |
| 1787697906 | 24.44° C | 55% | 1010.6 hPa | 0 mm | 0.45 m/s, 128° | - | - |
| 1787697005 | 24.44° C | 55% | 1010.6 hPa | 0 mm | 0 m/s | - | - |
* Rain latest hour (hover to see other rain measurements)
** Current wind speed in m/s (hover to see current wind gust speed)